Regional Weather Roundup
Issued by NWS

Home | Current Version | Previous Version | Text Only | Print | Product List | Glossary Off
Versions: 1 2 3 4 5 6 7 8 9 10 11 12 13 14 15 16 17 18 19 20 21 22 23 24 25 26 27 28 29 30 31 32 33 34 35 36 37 38 39 40 41 42 43 44 45 46 47 48 49 50

000
ASUS43 KMKX 031300
RWRWI

WISCONSIN REGIONAL WEATHER ROUNDUP
NATIONAL WEATHER SERVICE MILWAUKEE/SULLIVAN WI
800 AM CDT WED JUN 03 2015

NOTE: "FAIR" INDICATES FEW OR NO CLOUDS BELOW 12,000 FEET WITH NO
SIGNIFICANT WEATHER AND/OR OBSTRUCTIONS TO VISIBILITY.

WIZ001-002-006>008-014>016-023>028-031400-
NORTHWEST WISCONSIN

CITY           SKY/WX    TMP DP  RH WIND       PRES   REMARKS
SUPERIOR ARPT  PTSUNNY   51  49  94 CALM      29.87F
ASHLAND        CLOUDY    60  55  83 S6        29.92F
HAYWARD        CLOUDY    58  52  80 S5        29.93R
SIREN          CLOUDY    63  54  73 S6        29.89R
CUMBERLAND     CLOUDY    59  52  77 SE10      29.91F
RICE LAKE      CLOUDY    58  51  77 SE13      29.93F
CHETEK         CLOUDY    57  53  85 SE8       29.93F
LADYSMITH      CLOUDY    59  51  73 SE9       29.97F
EAU CLAIRE     NOT AVBL
MENOMONIE      CLOUDY    61  54  78 E10       29.92F
NEW RICHMOND   CLOUDY    62  54  75 S9G16     29.89S
OSCEOLA        CLOUDY    63  55  75 SE6       29.90S
$$

WIZ003>005-009-010-017-018-031400-
NORTH CENTRAL WISCONSIN

CITY           SKY/WX    TMP DP  RH WIND       PRES   REMARKS
MANITOWISH WTR PTSUNNY   59  51  74 S10       29.98S
ARBOR VITAE    PTSUNNY   59  50  72 S9        30.00S
WOODRUFF       PTSUNNY   59  50  72 S9        30.00S
RHINELANDER    MOSUNNY   60  49  66 SW8       30.02S
EAGLE RIVER    MOSUNNY   59  45  60 S8        30.01S
LAND O LAKES   MOSUNNY   60  47  62 S6        30.00F
PHILLIPS       MOSUNNY   58  50  74 S7        29.98S
TOMAHAWK       MOSUNNY   57  49  72 S3        30.02S
MEDFORD        SUNNY     56  49  80 SE8       30.00F
MERRILL        SUNNY     58  48  71 S6        30.03S
$$

WIZ029-030-035-036-043>047-031400-
CENTRAL WISCONSIN

CITY           SKY/WX    TMP DP  RH WIND       PRES   REMARKS
WAUSAU         SUNNY     59  48  67 VRB6      30.01F
MOSINEE        SUNNY     59  52  77 S10       30.04
MARSHFIELD     SUNNY     59  50  72 S10       30.01F
STEVENS POINT  SUNNY     58  47  67 S13       30.04S
WAUPACA        SUNNY     58  51  78 S5        30.06S
WAUTOMA        NOT AVBL
WISC RAPIDS    SUNNY     62  48  60 S8        30.04F
CAMP DOUGLAS   NOT AVBL
$$

WIZ011>013-019>022-031-037>040-048>050-031400-
NORTHEAST WISCONSIN

CITY           SKY/WX    TMP DP  RH WIND       PRES   REMARKS
ANTIGO         SUNNY     55  47  74 S10       30.04F
SHAWANO        SUNNY     59  49  69 S5        30.06S
OCONTO         SUNNY     59  50  70 S7        30.06S
STURGEON BAY   MOSUNNY   59  46  63 S15       30.10R
GREEN BAY      SUNNY     59  50  72 S9        30.07R
MANITOWOC      NOT AVBL
APPLETON         N/A     59  48  67 S9        30.08R
CLINTONVILLE   SUNNY     57  48  72 S6        30.06S
OSHKOSH        SUNNY     61  51  70 S10       30.07S
$$

WIZ032>034-041-042-053>061-031400-
SOUTHWEST WISCONSIN

CITY           SKY/WX    TMP DP  RH WIND       PRES   REMARKS
LA CROSSE      SUNNY     65  54  67 S12       29.96F
SPARTA         SUNNY     62  50  64 SE7       30.00F
VIROQUA        SUNNY     59  51  75 SE12      30.00F
BOSCOBEL       SUNNY     62  51  67 VRB3      30.00F
PRAIRIE DU CHI SUNNY     60  51  73 SE6       29.99F
PLATTEVILLE    SUNNY     60  54  79 SE12      30.02F
$$

WIZ056-057-062-063-064-067-068-031400-
SOUTH CENTRAL WISCONSIN

CITY           SKY/WX    TMP DP  RH WIND       PRES   REMARKS
REEDSBURG      SUNNY     59  52  78 SE6       30.04S
BARABOO/DELLS  SUNNY     59  51  74 S7        30.05S
LONE ROCK      NOT AVBL
MINERAL POINT  SUNNY     61  54  77 SE12      30.04S
MADISON        MOSUNNY   61  51  70 S12       30.05F
MIDDLETON      SUNNY     62  50  64 S10G17    30.06S
WATERTOWN      SUNNY     58  53  84 S5        30.08R
MONROE         MOSUNNY   59  52  77 S9        30.07R
JANESVILLE     PTSUNNY   63  52  67 S12       30.07
$$

WIZ051-052-058>065-066-070>072-031400-
SOUTHEAST WISCONSIN

CITY           SKY/WX    TMP DP  RH WIND       PRES   REMARKS
MILWAUKEE      PTSUNNY   59  51  75 S8        30.09R
WAUKESHA       MOSUNNY   55  48  76 S5        30.10S
MILWAUKEE/TIMM SUNNY     57  48  72 S5        30.10R
RACINE         SUNNY     60  48  64 S12       30.11R
BURLINGTON     SUNNY     53  49  84 CALM      30.09R
KENOSHA        SUNNY     61  52  72 S9        30.09R
FOND DU LAC    SUNNY     61  51  70 S10       30.08R
SHEBOYGAN      MOSUNNY   56  49  77 S7        30.10R
WEST BEND      SUNNY     55  46  71 S3        30.09R
JUNEAU         SUNNY     58  50  75 S8        30.09R
$$

LSZ147-162-031400-
LAKE SUPERIOR

STATION/POSITION TIME  TEMP    WIND        PRES    WAVE
                       AIR SEA DIR/SP/G            HT/PER
                 (UTC) (F)     (DEG/KT/KT) (MB)    (FT/S)
W MID LAKE BUOY  1150   43 37  260/ 10/ 17   N/A     0
DEVILS ISLAND    1200   51     120/ 11/ 12   N/A
PORT WING        1220   53     130/  2/ 17   N/A
SAXON HARBOR     1200   59      CALM  /  5   N/A
$$

LMZ867-665-643>646-031400-
LAKE MICHIGAN

STATION/POSITION TIME  TEMP    WIND        PRES    WAVE
                       AIR SEA DIR/SP/G            HT/PER
                 (UTC) (F)     (DEG/KT/KT) (MB)    (FT/S)
CHAMBERS ISLAND  1200   56     160/  6/  9   N/A
N MID LAKE BUOY  1150   44 37  180/ 12/ 12   N/A     1
NORTHPORT PIER   1200   55     160/  8/ 11   N/A
SISTER BAY       1103   52     160/ 12/ 16   N/A
ALGOMA LAKESHORE 1109          190/  6/  7   N/A
KEWAUNEE LAKESHO 1200   49     170/  9/ 10   N/A
SHEBOYGAN LAKESH 1200   48     170/  7/  8   N/A
PORT WASHINGTON  1200   54     170/  2/  3   N/A
ATWATER BUOY     1200   49 49  130/  6/  8   N/A
MILWAUKEE LAKESH 1200   52      80/  3/  4   N/A
S MID LAKE BUOY  1150   43 38  210/  2/  4   N/A     0
KENOSHA   LAKESH 1200   52     160/  5/  6   N/A
$$

TC  - TEMPERATURE IN CELSIUS
VSB - VISIBILITY IN STATUTE MILES
WCI - WIND CHILL INDEX
HX  - HEAT INDEX



USA.gov is the U.S. government's official web portal to all federal, state and local government web resources and services.